Location: Bats
(43.6587°N, 0.4584°W)
Time: 20:44:46
(UTC+00:00)

Cosmos 1302 Rocket - Pass Details

Date: 12 January 2026
Orbit: 752 x 772 km, 74.0° (Epoch: 13 February)

Event Time Altitude Azimuth Distance (km) Brightness Sun altitude
Rises 18:54:48 0° 188° (S) 3,213 7.4 -22.5°
Reaches altitude 10° 18:57:10 10° 185° (S) 2,295 6.6 -23.0°
Enters shadow 19:02:05 59° 117° (ESE) 882 4.0 -23.9°
